Notices

What's New in latest Release from April 7th, 2021:

- Updated Glossary, including Speed of Maximum Gust, and Total Hourly Precipitation

- Updated national and regional climate services offices contacts and prices information

- Addition of station inventory lists for 1981-2010, 1971-2000, and 1961-1990 Normals.

If you haven't already, please take our survey and provide feedback about our website: https://eccc.sondage-survey.ca/f/LanguageSelection.aspx?s=442ca660-fcf1-47c0-95a9-59707d6fd709

Hourly Data Report for November 20, 2019

OTTAWA INTL A
ONTARIO
Current Station Operator: NAVCAN

45°19'00.000" N
75°40'00.000" W
114.90 m
6106001
71628
YOW

Download Data

Hourly Data (November 2019)
Hourly Data Report for November 20, 2019
TIME
LST
Temp Definition
°C
Dew Point Definition
°C
Rel Hum Definition
%
Precip. Amount Definition
mm

Wind Dir Definition
10's deg

Wind Spd Definition
km/h
Visibility Definition
km
Stn Press Definition
kPa
Hmdx Definition


Wind Chill Definition


Weather Definition


00:00 0.1 -4.1 74   30 8 24.1 99.99     LegendNANA
01:00 0.1 -4.2 73   29 9 24.1 99.98     Mostly Cloudy
02:00 -0.6 -2.8 85   33 8 24.1 100.01   -3 LegendNANA
03:00 -0.6 -3.1 83   36 4 24.1 100.04   -2 LegendNANA
04:00 -1.5 -3.2 88   25 5 24.1 100.08   -3 Mostly Cloudy
05:00 -1.4 -3.3 87   27 8 24.1 100.15   -4 LegendNANA
06:00 -1.4 -3.4 87   30 8 24.1 100.21   -4 LegendNANA
07:00 -1.8 -3.5 88   30 7 24.1 100.27   -4 Mostly Cloudy
08:00 -1.3 -3.4 86   30 9 24.1 100.34   -5 LegendNANA
09:00 -0.6 -3.4 81   31 10 24.1 100.33   -4 LegendNANA
10:00 0.1 -3.9 75   28 9 24.1 100.38     Mostly Cloudy
11:00 0.3 -3.4 76   30 12 24.1 100.39     LegendNANA
12:00 1.1 -2.6 77   30 10 24.1 100.40     LegendNANA
13:00 1.7 -2.3 75   33 18 24.1 100.41     Mostly Cloudy
14:00 2.1 -2.2 73   32 14 24.1 100.43     LegendNANA
15:00 2.5 -2.2 71   33 8 24.1 100.45     LegendNANA
16:00 2.5 -2.6 69   33 4 24.1 100.51     Mainly Clear
17:00 2.1 -2.6 71   30 6 24.1 100.57     LegendNANA
18:00 0.6 -2.4 81   27 7 24.1 100.65     LegendNANA
19:00 -0.7 -3.4 82   27 7 24.1 100.67   -3 Clear
20:00 -1.0 -3.2 85   29 4 24.1 100.70   -2 LegendNANA
21:00 -4.1 -5.6 89   25 5 24.1 100.74   -6 LegendNANA
22:00 -3.2 -3.7 96   29 3 24.1 100.76   -4 Clear
23:00 -5.1 -5.6 96   22 4 24.1 100.81   -7 LegendNANA

Notes on Data Quality.

Legend

  • E = Estimated
  • M = Missing
  • NA = Not Available*
  • [empty] = Indicates an unobserved value
Date modified: